EW1963 Weather Reports


Display with metric or nautical units.
time (UTC)temp
F
wind
direction
speed
MPH
gust
MPH
rain 1hr
in
rain 24hr
in
rain mn
in
humidity
%
barometer
mb
20260509224207 87 208 0.0 0.0 0.00 0.00 0.00 59 1006.3
20260509223206 86 208 0.0 0.0 0.00 0.00 0.00 69 1006.3
20260509222206 85 208 0.0 0.0 0.00 0.00 0.00 64 1006.3
20260509221707 85 208 0.0 0.0 0.00 0.00 0.00 71 1006.3
20260509221206 85 208 0.0 0.0 0.00 0.00 0.00 62 1006.3
20260509220706 85 208 0.0 0.0 0.00 0.00 0.00 67 1006.2
20260509220206 85 208 0.0 0.0 0.00 0.00 0.00 58 1006.3
20260509215707 85 208 0.0 0.0 0.00 0.00 0.00 63 1006.4
20260509215206 85 208 0.0 0.0 0.00 0.00 0.00 56 1006.4
20260509213706 85 208 0.0 1.0 0.00 0.00 0.00 60 1006.6
20260509213207 85 208 0.0 0.0 0.00 0.00 0.00 65 1006.7
20260509212706 84 205 0.0 0.0 0.00 0.00 0.00 68 1006.8
20260509212206 83 205 0.0 0.0 0.00 0.00 0.00 73 1006.8
20260509211707 82 205 0.0 0.0 0.00 0.00 0.00 76 1006.9
20260509210706 82 205 0.0 1.0 0.00 0.00 0.00 80 1007.0
20260509210206 82 205 0.0 5.0 0.00 0.00 0.00 79 1007.1
20260509205706 82 204 0.0 5.0 0.00 0.00 0.00 80 1007.3
20260509205207 81 203 0.0 1.0 0.00 0.00 0.00 80 1007.4
20260509204706 81 204 0.0 0.0 0.00 0.00 0.00 76 1007.2
20260509204207 80 204 0.0 0.0 0.00 0.00 0.00 80 1007.2
20260509203706 79 204 0.0 0.0 0.00 0.00 0.00 80 1007.1
20260509203206 80 204 0.0 0.0 0.00 0.00 0.00 83 1007.0
20260509202706 77 204 0.0 0.0 0.00 0.00 0.00 84 1007.2
20260509202206 77 204 0.0 0.0 0.00 0.00 0.00 89 1007.3
20260509201707 76 204 0.0 0.0 0.00 0.00 0.00 89 1007.2
20260509201207 75 204 0.0 0.0 0.00 0.00 0.00 91 1007.4
20260509200707 74 204 0.0 0.0 0.00 0.00 0.00 92 1007.9
20260509200207 71 204 0.0 7.0 0.00 0.00 0.00 91 1008.2
20260509195706 71 204 0.0 7.0 0.00 0.00 0.00 86 1008.2
20260509195207 72 204 0.0 7.0 0.00 0.00 0.00 86 1008.4
20260509194706 73 207 0.0 4.0 0.00 0.00 0.00 82 1009.1
20260509194204 74 23 0.0 4.0 0.00 0.00 0.00 75 1008.7
20260509192706 84 288 0.0 0.0 0.00 0.00 0.00 69 1007.9
20260509192207 85 277 0.0 0.0 0.00 0.00 0.00 77 1007.9
20260509191706 85 277 0.0 0.0 0.00 0.00 0.00 74 1007.7
20260509191206 86 277 0.0 0.0 0.00 0.00 0.00 73 1007.8
20260509190206 86 277 0.0 3.0 0.00 0.00 0.00 72 1007.7
20260509185707 87 277 0.0 3.0 0.00 0.00 0.00 71 1007.7
20260509185206 87 277 0.0 4.0 0.00 0.00 0.00 71 1007.8
20260509184706 87 278 0.0 4.0 0.00 0.00 0.00 71 1007.9
20260509184207 87 278 0.0 4.0 0.00 0.00 0.00 72 1007.9
20260509183706 87 300 0.0 3.0 0.00 0.00 0.00 70 1008.1
20260509183206 87 300 0.0 3.0 0.00 0.00 0.00 71 1008.3
20260509182706 87 300 0.0 3.0 0.00 0.00 0.00 69 1008.4
20260509182205 88 339 0.0 3.0 0.00 0.00 0.00 68 1008.5
20260509181706 88 344 0.0 1.0 0.00 0.00 0.00 69 1008.5
20260509180710 87 336 0.0 1.0 0.00 0.00 0.00 70 1008.6
20260509180207 87 336 0.0 3.0 0.00 0.00 0.00 69 1008.6
20260509175707 87 337 0.0 3.0 0.00 0.00 0.00 70 1008.7
20260509175206 87 348 0.0 3.0 0.00 0.00 0.00 69 1008.6
20260509174706 86 331 0.0 0.0 0.00 0.00 0.00 71 1008.6
20260509173707 85 331 0.0 1.0 0.00 0.00 0.00 72 1009.2
20260509173206 87 331 0.0 1.0 0.00 0.00 0.00 72 1009.3
20260509172706 87 341 0.0 1.0 0.00 0.00 0.00 70 1009.3
20260509171707 86 279 0.0 1.0 0.00 0.00 0.00 71 1009.3
20260509171206 86 279 0.0 2.0 0.00 0.00 0.00 71 1009.2
20260509170706 86 267 0.0 3.0 0.00 0.00 0.00 73 1009.1
20260509170207 85 268 0.0 3.0 0.00 0.00 0.00 72 1009.1
20260509165706 85 237 0.0 3.0 0.00 0.00 0.00 75 1009.0
20260509164706 84 237 0.0 3.0 0.00 0.00 0.00 76 1009.1
20260509164207 84 237 0.0 3.0 0.00 0.00 0.00 76 1009.1
20260509163706 84 238 0.0 1.0 0.00 0.00 0.00 77 1009.3
20260509162706 83 238 0.0 5.0 0.00 0.00 0.00 77 1009.3
20260509162205 83 238 0.0 5.0 0.00 0.00 0.00 78 1009.3
20260509161706 83 254 0.0 1.0 0.00 0.00 0.00 79 1009.4
20260509161206 82 254 0.0 1.0 0.00 0.00 0.00 79 1009.4
20260509160706 82 239 0.0 1.0 0.00 0.00 0.00 79 1009.3
20260509160207 82 239 0.0 1.0 0.00 0.00 0.00 79 1009.3
20260509155706 82 239 0.0 1.0 0.00 0.00 0.00 79 1009.3
20260509155206 82 239 0.0 0.0 0.00 0.00 0.00 81 1009.3
20260509154707 81 239 0.0 2.0 0.00 0.00 0.00 82 1009.4
20260509154206 81 239 0.0 2.0 0.00 0.00 0.00 84 1009.3
20260509153706 80 239 0.0 3.0 0.00 0.00 0.00 85 1009.4
20260509153206 80 239 0.0 3.0 0.00 0.00 0.00 85 1009.3
20260509152207 78 239 0.0 2.0 0.00 0.00 0.00 88 1009.3
20260509151706 78 239 0.0 3.0 0.00 0.00 0.00 89 1009.4
20260509151207 77 239 0.0 5.0 0.00 0.00 0.00 91 1009.4
20260509150706 76 238 1.0 5.0 0.00 0.00 0.00 91 1009.4
20260509150207 76 239 1.0 5.0 0.00 0.00 0.00 91 1009.3
20260509145706 76 261 0.0 1.0 0.00 0.00 0.00 92 1009.2
20260509145206 75 261 0.0 1.0 0.00 0.00 0.00 93 1009.2
20260509144207 75 261 0.0 0.0 0.00 0.00 0.00 94 1009.2
20260509004706 79 0.0 1.0 0.00 0.00 0.00 80 1006.9
20260509004206 79 261 0.0 4.0 0.00 0.00 0.00 80 1006.9
20260509003706 79 261 0.0 4.0 0.00 0.00 0.00 80 1006.9
20260509003206 79 261 1.0 4.0 0.00 0.00 0.00 79 1006.8
20260509002707 79 261 1.0 3.0 0.00 0.00 0.00 79 1006.9
20260509002205 79 261 0.0 3.0 0.00 0.00 0.00 79 1007.0
20260509001706 79 261 0.0 3.0 0.00 0.00 0.00 78 1007.0
20260509001206 80 262 0.0 3.0 0.00 0.00 0.00 78 1007.0
20260509000706 80 262 0.0 3.0 0.00 0.00 0.00 78 1007.0
20260509000207 80 262 0.0 2.0 0.00 0.00 0.00 78 1006.9
20260508235706 80 262 0.0 1.0 0.00 0.00 0.00 77 1006.9
20260508233707 80 262 0.0 3.0 0.00 0.00 0.00 76 1007.0
20260508232706 80 262 0.0 1.0 0.00 0.00 0.00 76 1006.9
20260508232207 80 262 0.0 3.0 0.00 0.00 0.00 76 1006.9
20260508231707 80 262 0.0 3.0 0.00 0.00 0.00 76 1006.9
20260508231206 80 262 0.0 3.0 0.00 0.00 0.00 75 1006.9
20260508230706 80 262 0.0 4.0 0.00 0.00 0.00 76 1007.0
20260508225706 81 262 1.0 4.0 0.00 0.00 0.00 75 1007.0
20260508225206 81 262 0.0 1.0 0.00 0.00 0.00 75 1006.9